Location: České Budějovice
(48.9747°N, 14.4743°E)
Time: 00:18:01
(UTC+01:00)

ISS - Visible Passes

Search period start: 16 January 2021 00:00
Search period end: 26 January 2021 00:00
Orbit: 418 x 419 km, 51.6° (Epoch: 16 January)

Date Brightness Start Highest point End Pass type
(mag) Time Alt. Az. Time Alt. Az. Time Alt. Az.
18 Jan -1.4 18:42:02 10° S 18:42:56 14° S 18:42:56 14° S visible
19 Jan -1.4 17:55:35 10° SSE 17:56:49 12° SE 17:57:27 11° ESE visible
19 Jan -0.9 19:29:43 10° SW 19:30:25 15° SW 19:30:25 15° SW visible
20 Jan -2.8 18:42:10 10° SW 18:44:49 35° S 18:44:49 35° S visible
21 Jan -2.4 17:54:48 10° SSW 17:57:39 26° SE 17:59:10 18° ESE visible
21 Jan -1.2 19:30:49 10° WSW 19:32:07 22° WSW 19:32:07 22° WSW visible
22 Jan -3.9 18:43:01 10° WSW 18:46:23 77° SSE 18:46:23 77° SSE visible
23 Jan -3.4 17:55:19 10° SW 17:58:37 55° SSE 18:00:37 21° E visible
23 Jan -1.3 19:32:07 10° W 19:33:34 23° W 19:33:34 23° W visible
24 Jan -3.7 18:44:12 10° W 18:47:34 66° NNW 18:47:44 64° N visible
25 Jan -3.8 17:56:19 10° WSW 17:59:42 82° NNW 18:01:52 20° ENE visible
25 Jan -1.3 19:33:23 10° WNW 19:34:49 22° WNW 19:34:49 22° WNW visible
